Tracking 17828 objects as of 30-July-2016
HD Live streaming from Space Station
objects crossing your sky now

SJ-7

Track SJ-7 now!
10-day predictions
SJ-7 is classified as:


NORAD ID: 28737
Int'l Code: 2005-024A
Perigee: 567.5 km
Apogee: 611.1 km
Inclination: 97.7 °
Period: 96.3 minutes
Semi major axis: 6960 km
RCS: 3.0015 m2 (large)
Launch date: July 5, 2005
Source: People's Republic of China (PRC)
Launch site: Jiuquan Satellite Launch Center, China (JSC)
Your satellite tracking list
Your tracking list is empty





NASA's NSSDC Master Catalog

Two Line Element Set (TLE):
1 28737U 05024A   16211.96064261 -.00000025  00000-0  30159-5 0  9994
2 28737  97.6594 220.2648 0031340 310.8361  49.0165 14.95070962606804
Source of the keplerian elements: AFSPC

N2YO: 1225